Change the Weather History Date:

Wednesday, May 22, 2013

  Actual Average Record
Temperature  
Mean Temperature 52 °F -  
Max Temperature 55 °F 61 °F 70 °F (2007)
Min Temperature 48 °F 40 °F 30 °F (2002)
Degree Days  
Heating Degree Days 14    
Growing Degree Days 2 (Base 50)    
Moisture  
Dew Point 48 °F    
Average Humidity 87    
Maximum Humidity 94    
Minimum Humidity 82    
Precipitation  
Precipitation 0.58 in - - ()
Sea Level Pressure  
Sea Level Pressure 29.98 in    
Wind  
Wind Speed 4 mph (East)    
Max Wind Speed 8 mph    
Max Gust Speed 18 mph    
Visibility 5 miles    
Events Fog , Rain    
Averages and records for this station are not official NWS values.
T = Trace of Precipitation, MM = Missing Value Source: NWS Daily Summary

Daily Weather History Graph

Daily Weather History Graph

Search for Another Location

Airport or City:

Trip Planner

Search our weather history database for the weather conditions in past years. The results will help you decide how hot, cold, wet, or windy it might be!

Date:

Astronomy

May. 22, 2013 Rise Set
Actual Time 5:05 AM EDT 8:05 PM EDT
Civil Twilight 4:31 AM EDT 8:40 PM EDT
Nautical Twilight 3:47 AM EDT 9:24 PM EDT
Astronomical Twilight 2:56 AM EDT 10:16 PM EDT
Moon 5:19 PM EDT (5/22) 3:13 AM EDT (5/22)
Length of Visible Light 16h 08m
Length of Day
14h 59m
Waxing Gibbous, 91% of the Moon is Illuminated
May 22
Waxing Gibbous
May 25
Full
May 31
Last Quarter
Jun 8
New
Jun 16
First Quarter

Hourly Weather History & Observations

Time (EDT) Temp. Dew Point Humidity Pressure Visibility Wind Dir Wind Speed Gust Speed Precip Events Conditions
12:05 AM 48.2 °F 46.4 °F 93% 30.10 in 2.0 mi Calm Calm - 0.08 in Rain Heavy Rain
12:10 AM 48.2 °F 46.4 °F 93% 30.06 in 1.8 mi East 8.1 mph - 0.12 in Rain Heavy Rain
12:19 AM 48.2 °F 46.4 °F 93% 30.05 in 2.5 mi ENE 5.8 mph - 0.19 in Rain Heavy Rain
12:27 AM 48.2 °F 46.4 °F 93% 30.03 in 5.0 mi ENE 5.8 mph - 0.21 in Rain Rain
12:36 AM 48.2 °F 46.4 °F 93% 30.02 in 6.0 mi East 8.1 mph - 0.22 in Rain Rain
12:53 AM 48.9 °F 46.0 °F 90% 29.97 in 6.0 mi East 6.9 mph 18.4 mph 0.27 in Rain Rain
1:00 AM 48.2 °F 46.4 °F 93% 30.00 in 9.0 mi Calm Calm - 0.01 in Rain Light Rain
1:12 AM 48.2 °F 46.4 °F 93% 30.01 in 10.0 mi Variable 3.5 mph - 0.01 in   Overcast
1:53 AM 48.9 °F 46.0 °F 90% 29.97 in 10.0 mi East 3.5 mph - 0.01 in   Overcast
2:53 AM 48.9 °F 46.0 °F 90% 29.98 in 10.0 mi ESE 5.8 mph - N/A   Overcast
3:04 AM 48.2 °F 46.4 °F 93% 29.98 in 10.0 mi NE 4.6 mph - N/A   Overcast
3:53 AM 48.9 °F 46.9 °F 93% 30.00 in 10.0 mi Calm Calm - 0.00 in Rain Light Rain
4:53 AM 48.9 °F 46.9 °F 93% 29.96 in 6.0 mi Calm Calm - 0.07 in Rain Light Rain
5:41 AM 48.2 °F 46.4 °F 93% 29.95 in 5.0 mi East 3.5 mph - 0.12 in Rain Rain
5:53 AM 48.9 °F 46.9 °F 93% 29.93 in 5.0 mi East 5.8 mph - 0.14 in Rain Light Rain
6:53 AM 48.9 °F 46.9 °F 93% 29.95 in 10.0 mi Calm Calm - 0.02 in   Overcast
7:36 AM 50.0 °F 46.4 °F 87% 29.96 in 10.0 mi Calm Calm - N/A   Overcast
7:53 AM 50.0 °F 46.9 °F 89% 29.98 in 10.0 mi East 4.6 mph - N/A   Overcast
8:23 AM 50.0 °F 46.4 °F 87% 29.97 in 1.8 mi ENE 3.5 mph - 0.00 in Rain Light Rain
8:43 AM 50.0 °F 48.2 °F 94% 29.97 in 2.0 mi ENE 3.5 mph - 0.01 in   Overcast
8:53 AM 50.0 °F 48.0 °F 93% 29.98 in 2.0 mi Calm Calm - 0.01 in   Overcast
9:23 AM 50.0 °F 48.2 °F 94% 29.97 in 3.0 mi ENE 5.8 mph - N/A   Overcast
9:53 AM 51.1 °F 48.0 °F 89% 29.98 in 6.0 mi East 4.6 mph - N/A   Overcast
10:53 AM 53.1 °F 48.9 °F 86% 29.97 in 10.0 mi ESE 3.5 mph - N/A   Overcast
11:53 AM 53.1 °F 48.9 °F 86% 29.99 in 10.0 mi East 3.5 mph - N/A   Overcast
12:13 PM 53.6 °F 48.2 °F 82% 29.98 in 1.2 mi East 4.6 mph - N/A   Overcast
12:20 PM 53.6 °F 48.2 °F 82% 29.98 in 0.5 mi Variable 3.5 mph - N/A Fog Fog
12:53 PM 54.0 °F 48.9 °F 83% 29.98 in 0.2 mi Variable 3.5 mph - N/A   Haze
1:07 PM 53.6 °F 50.0 °F 88% 29.98 in 1.5 mi Calm Calm - N/A   Overcast
1:17 PM 53.6 °F 48.2 °F 82% 29.99 in 2.0 mi SE 3.5 mph - N/A   Haze
1:24 PM 53.6 °F 48.2 °F 82% 29.98 in 10.0 mi Calm Calm - N/A   Overcast
1:53 PM 54.0 °F 48.9 °F 83% 29.98 in 10.0 mi East 5.8 mph - N/A   Overcast
2:51 PM 53.6 °F 48.2 °F 82% 29.97 in 1.0 mi East 5.8 mph - N/A   Haze
2:53 PM 54.0 °F 48.9 °F 83% 29.97 in 2.5 mi ENE 6.9 mph - N/A   Haze
3:00 PM 55.4 °F 50.0 °F 82% 29.97 in 10.0 mi East 3.5 mph - N/A   Overcast
3:50 PM 53.6 °F 48.2 °F 82% 29.97 in 0.8 mi ESE 5.8 mph - N/A   Overcast
3:53 PM 53.1 °F 48.9 °F 86% 29.97 in 4.0 mi ESE 5.8 mph - N/A   Overcast
4:25 PM 53.6 °F 48.2 °F 82% 29.98 in 1.0 mi East 3.5 mph - N/A   Overcast
4:28 PM 53.6 °F 48.2 °F 82% 29.98 in 2.0 mi East 4.6 mph - N/A   Overcast
4:37 PM 53.6 °F 48.2 °F 82% 29.98 in 0.2 mi ESE 4.6 mph - N/A Fog Fog
4:47 PM 53.6 °F 48.2 °F 82% 29.98 in 1.8 mi East 4.6 mph - N/A   Overcast
4:53 PM 53.1 °F 48.9 °F 86% 29.98 in 0.8 mi East 4.6 mph - N/A   Overcast
5:02 PM 53.6 °F 48.2 °F 82% 29.98 in 3.0 mi Calm Calm - N/A   Overcast
5:50 PM 53.6 °F 48.2 °F 82% 29.98 in 0.5 mi Variable 3.5 mph - N/A Fog Fog
5:53 PM 53.1 °F 48.9 °F 86% 29.98 in 3.0 mi ENE 3.5 mph - N/A   Overcast
5:56 PM 53.6 °F 48.2 °F 82% 29.97 in 1.5 mi ENE 4.6 mph - N/A   Overcast
6:02 PM 53.6 °F 48.2 °F 82% 29.97 in 0.8 mi ENE 4.6 mph - N/A   Haze
6:06 PM 53.6 °F 48.2 °F 82% 29.97 in 1.5 mi ENE 4.6 mph - N/A   Haze
6:17 PM 53.6 °F 48.2 °F 82% 29.97 in 10.0 mi East 3.5 mph - N/A   Overcast
6:27 PM 53.6 °F 48.2 °F 82% 29.96 in 1.0 mi ENE 6.9 mph - N/A   Haze
6:30 PM 53.6 °F 48.2 °F 82% 29.97 in 4.0 mi ENE 5.8 mph - N/A   Haze
6:46 PM 53.6 °F 48.2 °F 82% 29.97 in 1.2 mi East 4.6 mph - N/A   Haze
6:53 PM 53.1 °F 48.0 °F 83% 29.97 in 0.5 mi East 4.6 mph - N/A   Haze
7:03 PM 53.6 °F 48.2 °F 82% 29.97 in 3.0 mi ENE 3.5 mph - N/A   Haze
7:53 PM 52.0 °F 48.0 °F 86% 30.00 in 0.5 mi Calm Calm - N/A Fog Fog
8:00 PM 51.8 °F 48.2 °F 88% 30.00 in 1.2 mi Calm Calm - N/A   Overcast
8:08 PM 51.8 °F 48.2 °F 88% 30.00 in 10.0 mi Calm Calm - N/A   Overcast
8:28 PM 51.8 °F 48.2 °F 88% 30.00 in 1.8 mi Calm Calm - 0.00 in Rain Light Rain
8:31 PM 51.8 °F 48.2 °F 88% 30.00 in 0.8 mi East 3.5 mph - 0.00 in   Overcast
8:49 PM 51.8 °F 48.2 °F 88% 30.00 in 1.5 mi East 4.6 mph - 0.00 in Rain Light Rain
8:53 PM 51.1 °F 48.0 °F 89% 30.00 in 2.5 mi ENE 3.5 mph - 0.00 in Rain Light Rain
9:00 PM 51.8 °F 48.2 °F 88% 29.99 in 6.0 mi East 5.8 mph - 0.02 in Rain Light Rain
9:53 PM 51.1 °F 48.0 °F 89% 30.00 in 10.0 mi Calm Calm - 0.04 in   Overcast
10:53 PM 50.0 °F 48.0 °F 93% 30.00 in 10.0 mi Calm Calm - 0.02 in   Overcast
11:53 PM 50.0 °F 48.0 °F 93% 29.98 in 10.0 mi Calm Calm - N/A   Overcast